Temp
13 13 13 13 13 13 13 13 13 13 14 14 14 15 15 15 15 15 15 14 14 14 14 14 14 14 13 13 13 13 13 13 13 13 13 13 13 13 13 13 13 13
12 12 12 13 13 12 13 13 13 13 13 13 13 14 15 15 15 15 14 14 14 14 14 14 14 14 13 13 13 13 13 13 13 13 13 13 13 13 13 13 13 13
12 12 12 12 13 12 12 12 12 13 13 13 13 13 14 14 14 14 14 14 14 13 13 14 14 13 13 13 13 13 13 13 13 13 13 13 13 13 13 13 13 13
13 12 11 11 12 12 12 12 12 12 12 13 13 13 13 13 13 13 13 13 13 13 13 13 13 13 13 13 13 13 13 13 13 13 13 13 13 12 13 13 13 13
12 12 11 11 12 12 12 12 12 12 12 12 13 13 12 12 13 13 13 13 13 13 12 12 13 12 12 13 13 13 13 13 13 12 13 13 13 12 13 13 13 13
12 12 11 11 11 11 11 12 12 12 13 13 13 13 12 12 12 13 13 13 13 12 12 12 13 13 13 13 14 13 13 13 13 12 13 13 13 12 12 13 13 13
11 12 12 11 11 11 11 12 12 12 12 13 13 13 12 12 12 12 12 12 12 12 12 12 12 13 13 13 14 14 13 13 13 13 13 13 13 12 12 13 13 13
10 11 12 12 12 11 11 11 12 12 12 13 13 13 12 12 12 12 12 12 12 12 13 12 12 13 13 13 14 14 14 14 13 13 13 13 12 12 12 13 13 13
10 10 12 12 12 12 12 12 12 12 12 12 12 12 12 12 13 13 12 12 13 13 13 13 12 13 13 13 13 14 14 14 13 13 13 13 13 12 12 13 13 13
9 10 11 12 12 12 12 12 12 11 12 12 12 12 12 12 13 13 12 12 13 13 13 13 12 13 13 13 13 13 14 13 13 13 13 13 13 12 12 12 13 13
9 10 12 12 12 12 12 12 12 12 12 12 12 12 12 12 13 12 12 13 13 13 13 13 12 12 13 13 13 13 13 13 13 14 14 13 13 12 12 12 13 13
9 10 10 11 12 13 12 12 12 12 12 12 11 11 11 12 12 12 12 13 13 13 13 13 13 13 12 12 12 13 13 13 13 13 13 13 13 13 12 12 13 13
9 8 8 9 10 11 12 12 13 12 12 11 10 10 11 11 12 12 12 12 13 13 13 13 13 13 12 12 12 13 13 13 13 13 13 13 13 13 12 12 12 13
8 7 7 7 9 9 10 11 12 12 12 11 10 10 10 11 11 12 12 12 13 13 13 13 13 13 12 12 12 12 13 13 12 13 13 13 13 13 12 12 12 13
7 7 7 7 8 8 8 9 10 10 10 10 10 10 10 11 11 11 11 12 12 12 12 12 12 12 13 13 12 12 12 13 12 12 13 13 13 13 13 12 13 13
7 7 6 6 7 7 7 8 9 9 9 9 9 10 10 10 10 11 11 11 11 12 12 12 12 12 13 13 12 12 12 12 12 12 12 13 13 13 13 13 13 13
7 6 6 6 6 6 6 7 8 8 8 8 9 9 10 10 10 10 11 11 11 11 11 11 11 12 12 12 12 12 12 12 12 12 12 12 13 13 12 13 13 13
6 6 6 5 5 5 5 6 7 8 8 9 9 9 9 9 10 10 10 10 11 11 11 11 11 12 12 12 12 12 12 12 12 12 12 12 12 12 12 12 12 12
6 6 5 5 5 5 5 6 7 7 8 8 8 8 9 9 9 10 10 10 10 10 10 11 11 11 12 12 12 12 12 12 12 12 12 12 12 12 12 12 12 12
5 5 5 5 5 5 5 6 7 7 7 7 7 8 8 9 9 9 9 9 10 10 10 10 10 11 11 12 12 12 12 12 12 12 12 12 12 12 12 12 12 12
5 5 5 4 4 4 5 6 6 6 6 6 6 7 7 7 8 8 9 9 9 9 9 10 10 10 10 11 11 11 11 12 12 12 12 12 12 12 12 12 12 12
5 5 5 4 4 4 4 5 6 6 6 5 5 6 6 6 6 7 8 8 8 8 9 9 9 9 10 10 10 11 11 11 12 12 12 12 11 11 11 12 12 12
5 5 4 4 4 4 4 4 5 5 5 5 5 5 5 5 6 6 6 6 7 7 7 8 8 9 9 9 10 11 11 11 11 11 11 12 11 11 11 11 11 11
5 4 4 3 4 3 3 3 4 4 4 4 5 5 5 5 5 5 5 5 6 6 6 7 7 8 8 9 10 10 10 11 11 11 11 11 11 11 11 11 11 12
4 3 3 3 3 3 3 3 3 3 3 4 4 4 4 4 5 5 5 5 5 5 5 6 6 7 8 8 9 10 10 10 10 11 11 11 10 10 11 11 12 12
3 3 3 3 3 3 3 3 3 3 3 3 3 3 4 4 4 4 4 4 4 5 5 6 6 7 7 7 8 8 9 10 11 11 10 10 10 11 11 11 12 12
Height
1515 1515 1515 1514 1513 1513 1512 1511 1510 1509 1509 1510 1509 1507 1506 1504 1504 1503 1503 1505 1506 1507 1508 1509 1510 1512 1514 1516 1518 1520 1521 1523 1524 1524 1523 1523 1523 1524 1525 1526 1527 1527
1514 1513 1513 1513 1512 1511 1510 1509 1509 1508 1508 1509 1509 1507 1506 1504 1503 1502 1502 1503 1503 1504 1505 1506 1507 1509 1512 1514 1516 1519 1520 1521 1522 1521 1519 1519 1520 1522 1523 1524 1524 1525
1512 1511 1511 1511 1511 1510 1509 1508 1507 1507 1507 1508 1508 1506 1505 1503 1502 1501 1500 1501 1502 1502 1504 1505 1506 1508 1510 1512 1514 1517 1518 1519 1519 1518 1517 1518 1519 1520 1521 1521 1521 1522
1511 1510 1509 1510 1510 1509 1508 1506 1506 1507 1507 1507 1507 1506 1504 1503 1502 1501 1500 1500 1500 1501 1502 1503 1505 1507 1508 1511 1512 1514 1515 1516 1517 1517 1516 1517 1518 1519 1519 1519 1520 1521
1510 1509 1509 1509 1508 1507 1506 1506 1506 1506 1506 1505 1505 1505 1504 1502 1501 1500 1499 1499 1498 1499 1500 1502 1503 1505 1506 1508 1510 1511 1512 1514 1515 1515 1515 1515 1517 1518 1518 1518 1519 1520
1509 1508 1508 1508 1507 1506 1505 1505 1505 1505 1504 1504 1503 1503 1503 1501 1499 1498 1498 1497 1496 1497 1499 1500 1501 1502 1503 1504 1505 1507 1509 1511 1512 1513 1514 1514 1515 1516 1516 1516 1517 1518
1508 1508 1507 1506 1506 1506 1505 1505 1504 1504 1503 1502 1501 1502 1502 1500 1498 1497 1496 1495 1495 1496 1497 1498 1498 1499 1500 1501 1502 1503 1505 1507 1509 1511 1512 1513 1514 1514 1514 1514 1515 1516
1508 1507 1506 1505 1505 1505 1505 1504 1503 1503 1502 1501 1500 1500 1500 1499 1497 1496 1495 1494 1493 1494 1495 1495 1495 1497 1498 1498 1499 1500 1501 1503 1506 1508 1510 1511 1513 1514 1513 1512 1513 1514
1508 1507 1506 1505 1504 1503 1503 1503 1502 1501 1501 1500 1499 1498 1498 1497 1496 1495 1494 1493 1492 1492 1492 1493 1493 1494 1495 1496 1496 1497 1499 1501 1503 1506 1507 1509 1511 1512 1511 1510 1511 1512
1509 1507 1505 1504 1503 1502 1501 1501 1501 1500 1499 1498 1497 1496 1496 1495 1494 1494 1492 1491 1491 1490 1491 1492 1492 1492 1493 1494 1495 1496 1497 1499 1501 1503 1504 1506 1508 1510 1511 1510 1510 1510
1509 1507 1505 1504 1503 1501 1500 1499 1498 1497 1496 1495 1495 1494 1494 1494 1493 1492 1491 1490 1489 1489 1489 1490 1491 1491 1491 1492 1493 1494 1495 1497 1499 1500 1502 1504 1506 1508 1510 1509 1508 1508
1510 1507 1505 1504 1502 1501 1500 1498 1497 1495 1494 1493 1493 1492 1492 1492 1492 1491 1490 1488 1488 1487 1488 1488 1489 1490 1490 1490 1491 1492 1494 1496 1498 1498 1500 1502 1504 1507 1508 1506 1505 1506
1510 1508 1506 1504 1502 1501 1499 1498 1496 1495 1493 1492 1492 1491 1491 1490 1490 1489 1489 1487 1486 1486 1487 1487 1488 1489 1488 1488 1489 1491 1493 1496 1496 1497 1498 1499 1501 1504 1504 1503 1502 1504
1511 1509 1507 1505 1503 1500 1499 1497 1495 1494 1493 1491 1491 1491 1490 1490 1489 1489 1488 1486 1486 1486 1486 1487 1488 1488 1487 1487 1488 1490 1492 1494 1495 1496 1497 1498 1499 1501 1502 1501 1501 1502
1512 1510 1508 1506 1503 1501 1499 1497 1495 1494 1492 1491 1490 1489 1489 1488 1488 1488 1486 1485 1485 1485 1485 1486 1486 1486 1486 1487 1488 1489 1491 1493 1494 1495 1496 1496 1497 1498 1500 1500 1501 1501
1514 1511 1509 1506 1504 1501 1499 1497 1495 1493 1491 1490 1489 1489 1488 1487 1486 1486 1485 1484 1484 1484 1484 1484 1484 1485 1486 1486 1487 1488 1489 1491 1492 1493 1494 1495 1495 1497 1498 1498 1499 1500
1515 1512 1510 1507 1504 1502 1499 1497 1495 1493 1491 1490 1489 1488 1487 1485 1484 1484 1483 1483 1482 1482 1482 1482 1483 1484 1484 1484 1485 1487 1488 1489 1490 1491 1493 1494 1495 1496 1496 1496 1497 1497
1516 1513 1511 1508 1505 1503 1500 1498 1495 1493 1491 1489 1488 1487 1485 1484 1483 1482 1481 1481 1480 1480 1480 1480 1481 1482 1482 1482 1483 1485 1486 1487 1488 1490 1491 1492 1493 1493 1493 1493 1493 1494
1517 1514 1512 1509 1506 1504 1501 1499 1496 1494 1491 1489 1487 1486 1484 1483 1482 1481 1480 1479 1479 1478 1479 1478 1479 1479 1479 1479 1480 1482 1483 1484 1485 1487 1488 1489 1491 1491 1490 1489 1490 1491
1517 1515 1513 1510 1508 1506 1503 1500 1498 1495 1492 1490 1487 1485 1484 1482 1481 1479 1479 1478 1477 1477 1477 1476 1476 1477 1477 1477 1478 1479 1480 1481 1483 1484 1485 1486 1488 1488 1486 1486 1487 1489
1518 1515 1513 1512 1510 1507 1505 1502 1500 1497 1494 1491 1489 1486 1484 1482 1480 1479 1478 1477 1477 1476 1476 1475 1474 1475 1474 1474 1475 1476 1477 1479 1480 1481 1483 1484 1486 1486 1484 1484 1486 1488
1519 1516 1514 1513 1511 1509 1507 1504 1501 1499 1496 1494 1491 1489 1486 1484 1482 1480 1478 1477 1476 1475 1474 1473 1473 1472 1471 1472 1473 1474 1475 1477 1478 1479 1480 1481 1483 1484 1483 1482 1484 1486
1520 1517 1515 1514 1513 1510 1508 1506 1503 1501 1498 1496 1494 1491 1488 1486 1484 1482 1480 1478 1476 1474 1473 1472 1471 1470 1470 1470 1471 1472 1473 1474 1475 1476 1477 1478 1481 1482 1481 1480 1482 1484
1521 1519 1517 1516 1515 1512 1511 1508 1506 1503 1501 1499 1496 1494 1491 1489 1486 1484 1482 1480 1478 1476 1474 1472 1471 1470 1469 1469 1470 1470 1471 1471 1472 1474 1475 1477 1479 1479 1477 1478 1481 1483
1523 1521 1519 1518 1517 1515 1513 1511 1509 1507 1504 1502 1499 1497 1494 1492 1489 1487 1485 1483 1480 1478 1476 1474 1472 1470 1469 1468 1468 1469 1470 1471 1472 1473 1474 1476 1476 1475 1475 1478 1480 1481
1525 1523 1521 1520 1519 1517 1515 1514 1511 1510 1508 1505 1502 1500 1497 1495 1492 1490 1488 1486 1483 1481 1478 1476 1474 1472 1471 1469 1469 1468 1469 1470 1471 1473 1474 1474 1474 1475 1477 1479 1479 1480
Wind_Speed
8 9 10 12 14 15 16 17 16 17 19 18 18 19 18 17 16 15 17 19 20 19 20 22 22 23 22 22 23 21 19 20 24 26 25 25 25 24 25 26 23 20
10 9 10 10 13 16 17 18 18 18 19 19 20 21 21 21 20 19 19 19 18 19 19 21 22 23 21 21 22 22 21 20 22 24 24 24 25 24 24 25 24 20
11 11 10 10 12 15 17 20 20 19 18 18 20 23 23 23 22 21 20 17 16 18 20 20 22 21 20 20 19 20 21 21 21 22 22 23 24 23 23 23 22 19
11 12 11 10 13 15 16 19 20 17 18 19 20 23 24 23 21 19 18 16 17 19 20 21 21 19 17 17 17 18 20 21 22 21 21 22 22 23 22 22 20 18
12 12 11 11 13 16 16 17 16 15 17 18 19 21 23 24 22 18 17 17 17 19 20 20 20 18 16 14 15 18 19 20 22 22 22 23 23 23 22 21 21 19
12 12 11 10 12 14 15 14 12 13 15 17 17 20 22 22 20 19 19 18 18 17 18 19 19 17 17 16 16 17 18 19 21 22 23 23 22 22 22 22 21 21
12 12 12 11 10 11 12 11 11 12 14 15 16 18 19 19 18 18 19 18 17 17 16 17 18 17 17 17 17 18 20 20 21 23 23 23 22 21 22 21 20 20
13 13 13 12 11 11 11 11 11 12 14 14 16 17 17 17 16 16 17 16 16 16 15 15 16 17 17 16 16 19 21 20 21 23 22 22 22 23 23 21 20 20
14 14 13 13 13 13 13 13 12 12 13 14 16 17 16 16 16 16 16 17 17 16 14 13 16 18 18 18 18 20 21 20 21 23 22 21 23 23 22 21 21 21
14 14 15 14 14 14 14 16 15 15 15 16 16 16 16 18 17 17 19 20 19 17 14 14 17 19 18 19 20 20 20 20 20 22 23 22 23 23 22 22 22 21
14 16 18 17 16 16 16 17 17 18 18 18 17 17 17 18 17 18 20 20 19 18 16 17 19 19 18 18 20 20 20 20 21 21 22 22 23 24 24 22 21 20
16 16 17 17 18 18 16 17 18 18 19 18 17 17 17 17 16 18 20 20 20 20 18 18 19 18 18 18 18 19 19 19 20 21 20 21 23 24 23 21 20 19
18 15 15 16 18 18 17 17 18 18 17 16 16 17 18 17 16 17 19 20 21 21 19 19 18 17 17 18 19 20 19 18 21 22 21 22 23 24 23 21 20 18
20 17 16 17 17 17 18 18 17 17 16 14 13 15 17 17 17 17 18 19 21 22 21 20 18 17 17 17 18 19 19 18 21 23 22 21 22 23 22 19 17 18
22 19 18 18 17 16 17 17 17 16 15 14 12 12 13 15 17 18 18 18 20 21 21 21 19 17 17 16 15 17 18 18 20 22 21 20 20 20 21 19 19 20
21 20 20 19 17 17 17 16 16 16 15 14 13 12 13 14 14 15 17 18 19 20 20 20 19 18 19 19 18 17 17 18 20 21 21 21 19 19 22 22 21 21
20 20 20 19 17 17 18 17 16 16 15 14 13 13 15 16 16 16 15 15 18 18 18 18 19 18 19 21 21 19 18 19 21 22 22 20 19 20 23 23 22 22
19 20 20 20 18 18 19 18 17 16 15 13 12 12 14 15 18 20 18 17 17 17 17 18 18 19 19 20 20 20 20 21 21 22 21 20 21 24 24 21 20 21
18 19 20 20 19 18 19 18 17 18 17 14 13 12 12 12 13 16 18 17 17 16 17 16 15 18 22 21 20 21 22 22 22 22 20 19 21 23 20 16 16 17
18 18 19 19 19 18 19 20 20 20 20 19 17 14 13 12 11 11 12 14 14 15 15 16 16 19 24 25 24 23 23 23 23 23 21 19 18 17 16 16 17 18
18 18 18 19 19 18 20 23 24 23 24 24 23 21 19 16 14 12 10 10 11 12 13 16 18 20 23 26 26 25 24 23 24 23 21 19 16 15 15 16 17 18
18 17 17 18 19 18 20 24 26 26 26 26 26 25 24 23 22 19 17 14 11 11 11 13 16 19 22 24 24 26 25 24 24 23 20 19 16 14 14 14 15 16
18 17 16 17 19 20 20 22 23 25 27 26 25 25 24 24 24 23 21 20 17 15 13 12 14 17 20 20 21 23 24 24 25 23 21 20 17 14 16 17 16 15
18 17 17 17 19 20 19 19 20 22 25 26 24 23 22 22 22 21 21 20 18 17 15 14 14 16 17 17 17 20 22 22 22 19 16 17 15 13 15 15 13 12
18 17 17 18 19 19 18 18 18 18 20 22 23 23 22 22 22 22 21 20 17 15 14 12 12 12 13 14 14 17 18 18 17 15 14 15 14 12 12 12 12 12
18 17 18 19 18 18 18 18 18 17 17 17 18 20 23 24 23 24 24 23 21 19 17 14 12 10 8 8 8 10 13 15 17 18 16 13 11 11 12 13 13 14
Wind_Direction
291 272 271 273 271 265 254 247 248 253 256 256 254 250 246 246 248 249 247 246 248 246 244 244 244 246 242 233 228 227 228 224 221 223 221 219 217 215 215 212 209 211
316 300 282 277 279 273 262 254 250 251 257 260 257 254 254 254 251 248 246 244 246 245 242 242 243 243 240 235 232 231 233 231 225 223 222 222 220 217 215 212 209 210
323 316 299 283 280 277 270 265 259 253 255 260 260 257 256 257 253 250 249 246 246 243 238 238 241 241 238 236 236 233 233 236 236 230 227 228 226 221 219 217 213 211
327 331 324 303 288 285 279 274 271 267 259 255 259 260 260 263 263 260 258 253 248 243 237 236 238 239 238 236 234 232 232 239 243 238 232 230 226 222 220 216 214 212
328 334 337 321 299 295 292 284 280 279 269 258 257 261 264 266 264 260 258 255 251 245 238 237 237 237 238 234 230 229 232 241 243 236 231 229 223 219 217 214 214 215
329 332 334 325 309 306 306 299 290 285 279 273 268 268 268 266 262 259 257 255 255 249 241 239 237 234 235 234 231 230 234 240 239 233 230 229 222 216 217 217 216 218
334 331 329 325 319 317 317 311 300 289 284 279 275 273 271 266 264 265 265 262 259 253 245 238 234 233 234 236 234 231 234 237 235 232 231 229 223 217 218 218 215 216
342 334 329 324 317 313 312 310 306 298 290 282 277 276 276 273 270 268 270 269 264 258 250 240 237 237 235 236 235 233 236 235 229 228 231 230 227 220 217 218 216 214
348 341 336 330 319 311 304 299 297 295 293 289 284 283 284 284 280 277 277 271 266 264 258 250 247 243 238 235 232 232 234 232 225 225 229 231 232 226 218 217 217 213
355 350 346 341 330 321 311 302 296 292 292 292 290 289 287 286 283 281 281 274 268 269 263 256 253 247 241 235 229 228 229 228 227 229 232 234 236 234 224 217 216 213
358 354 349 345 338 332 325 316 308 299 295 293 292 291 287 287 285 280 279 275 271 271 265 262 259 249 242 237 230 227 229 232 232 231 233 234 235 236 229 220 218 216
0 356 351 347 340 335 329 323 317 309 303 299 298 296 291 289 286 281 281 277 271 268 266 268 266 253 243 238 234 232 233 236 236 234 234 231 233 237 230 221 222 220
360 357 356 351 342 337 330 324 321 315 309 305 305 303 297 289 283 282 284 281 274 268 263 264 264 256 248 240 235 237 237 235 235 236 234 229 231 237 233 224 223 223
357 359 360 352 343 339 333 326 323 318 310 304 302 302 300 294 288 284 280 277 276 272 267 265 261 256 254 246 237 238 240 237 235 235 235 231 231 238 241 232 221 221
358 360 359 352 346 344 339 333 329 324 315 306 294 289 292 292 290 287 281 276 276 273 270 269 262 255 256 253 242 239 242 240 235 236 238 234 232 237 240 234 223 222
0 360 359 356 352 348 346 342 335 327 321 313 299 283 281 283 284 286 284 280 278 275 273 270 263 255 255 256 250 245 246 243 236 237 238 233 230 230 230 229 226 224
3 1 1 359 355 353 352 350 342 333 326 318 308 293 285 282 279 280 281 279 275 273 273 269 260 254 254 256 252 245 244 243 237 237 238 234 230 225 222 224 224 221
5 4 4 2 359 358 357 355 352 348 340 329 319 309 297 287 281 279 280 282 278 272 273 271 260 253 254 255 251 244 242 244 242 240 237 234 231 225 220 223 224 219
7 7 8 6 4 2 2 4 5 3 0 353 344 334 319 304 291 282 278 280 280 274 273 271 255 244 245 249 249 245 240 240 243 241 234 233 238 231 219 218 222 219
8 10 10 9 8 7 8 14 17 17 16 13 6 359 347 331 316 302 287 280 279 278 273 268 256 242 240 243 245 244 240 236 238 238 234 235 243 237 223 220 220 217
9 11 13 13 12 11 14 20 22 22 22 20 17 16 12 5 354 341 325 305 292 288 279 272 267 256 247 243 239 239 238 235 234 235 234 235 239 235 230 229 223 217
10 12 15 15 14 15 17 21 23 22 21 20 19 18 16 13 11 6 359 349 331 314 298 282 274 265 257 251 243 237 233 230 230 231 230 230 230 225 224 223 217 213
17 17 17 17 16 18 18 19 22 24 22 19 17 16 15 13 11 7 2 358 351 340 328 310 292 275 265 261 251 237 230 226 225 224 226 232 232 220 213 213 211 210
25 23 22 21 19 19 19 18 20 23 24 22 19 17 19 18 14 9 4 0 357 351 343 331 314 296 282 273 256 238 234 231 222 215 223 234 231 213 206 210 214 220
25 24 24 23 19 17 18 17 18 21 23 25 25 24 26 26 23 20 16 12 8 3 355 345 330 313 298 283 258 238 236 233 223 220 223 219 210 207 213 221 224 227
24 24 24 23 20 17 17 17 18 17 17 19 23 27 31 32 30 29 26 23 20 16 11 6 359 349 329 301 260 226 218 218 220 227 226 213 212 230 238 236 232 228